Jackpot

Texas Poker Multi Jackpot System

Kini Telah hadir Jackpot SUPER ROYAL FLUSH

Kini Telah hadir Jackpot 2000 (khusus table VIP keatas).

Ikutilah global jackpot yang tersedia di system kami, dengan system jackpot terbaru dan pertama di indonesia, anda dapat membeli jackpot dengan harga 100 rupiah saja dan menangkan hadiahnya hingga puluhan juta rupiah.

Jackpot bukanlah suatu keharusan untuk dibeli, namun kami memberikan suatu fitur tambahan untuk member tercinta dari www.genkpoker.net.

Terdapat tiga pilihan harga jackpot yang bisa anda beli yaitu :100,500,1000 dan 2000(khusus table VIP Keatas) rupiah.

Hadiah dari Multi jackpot system www.genkpoker.net

  1. full house x 10 harga jackpot yang anda beli.
      (contoh:anda membeli 1000 maka:1000 X10 = 10.000)
  2. four of kind x 250 harga jackpot yang anda beli
      (contoh:anda membeli 1000 maka:1000 X250 = 250.000)
  3. Straight flush x 1200
      (contoh:anda membeli 1000 maka:1000 X1200 = 1.200.000)
  4. Royal flush x 10000 harga jackpot yang anda beli
      (contoh:anda membeli 1000 maka:1000 X10000 = 10.000.000)
  5. SUPER ROYAL FLUSH x 30000 harga jackpot yang anda beli
      (contoh:anda membeli 1000 maka:1000 X30000 = 30.000.000)

Kondisi kartu

  1. full house adalah kondisi kartu dimana kartu anda dan kartu tengah dengan total 7 kartu bisa mendapatkan nilai 5 kartu dengan kombinasi 1 tris(three of kind) dan 1 pair, contoh 3 kartu 10 dan 2 kartu 5
  2. Four of kind adalah kondisi kartu dimana kartu anda dan kartu tengah dengan total 7 kartu bisa mendapatkan nilai 5 kartu dengan kombinasi 4 kartu yang sama jumlah dan 1 kartu apapun juga contoh anda mendapatkan 4 buah kartu angka 3 dan 1 kartu apapun.
  3. Staright flush adalah kondisi kartu dimana kartu anda dan kartu tengah dengan total 7 kartu bisa mendapatkan nilai 5 kartu dengan kombinasi seri / staright dengan kembang yang sama contoh : urutan kartu dari angka 5, 6, 7, 8 , 9 10 dengan kembang yg sama misalnya as hati
  4. Royal flush adalah kondisi kartu dimana kartu anda dan kartu tengah dengan total 7 kartu bisa mendapatkan nilai 5 kartu dengan kombinasi seri / staright dengan kembang yang sama tetapi kartu tersebut haruslah dimulai dari 10. contoh 10, Queen, Jack, King dan aces dengan kembang yang sama
  5. Super Royal flush adalah kondisi kartu dimana Kedua kartu anda digabung dengan 3 kartu pertama meja haruslah royal flush. contoh kartu anda 10,Queen kembang sama dan 3 kartu pertama meja adalah Jack, King dan aces dengan kembang yang sama

Demikian adalah penjelasan dari Multi Jackpot www.genkpoker.net terima kasih dan selamat bermain salam hoki dari kami

Texas Poker Jackpot Winner

TOP SUPER ROYAL FLUSH
No.TanggalNamaPriceWin
121/11 02:06KODAM09Super Royal flush15,000,000
221/11 00:17KIDSMASTERSuper Royal flush30,000,000
320/11 16:46NEW_SKUDSuper Royal flush6,000,000
420/11 16:28KEDIL11Super Royal flush6,000,000
520/11 15:11DIKA8910Super Royal flush60,000,000
TOP ROYAL FLUSH
No.TanggalNamaPriceWin
121/11 03:34LANU22Royal flush5,000,000
221/11 02:56SOSROJOYORoyal flush5,000,000
321/11 02:53BIAWAKTBKRoyal flush20,000,000
421/11 02:45EEE2EFC2Royal flush1,000,000
521/11 02:37DWBT95255Royal flush2,000,000
TOP STRAIGHT FLUSH
No.TanggalNamaPriceWin
121/11 03:41GIJOEEEEEStraight Flush1,200,000
221/11 03:40SKU9YNN31AStraight Flush600,000
321/11 03:38BEDUL57Straight Flush120,000
421/11 03:37QE29TERH7IStraight Flush240,000
521/11 03:32WBS99Straight Flush1,200,000
LATEST JACKPOT
No.TanggalNamaPriceWin
121/11 03:42BULUL4NCIKFull House5,000
221/11 03:42BEBIHUIFull House5,000
321/11 03:42NDYCOOLFull House20,000
421/11 03:42TALUA33Full House5,000
521/11 03:42B4YUXXFull House1,000
621/11 03:42TIBEL222Full House5,000
721/11 03:42SULILIFull House2,000
821/11 03:42S398Full House1,000
921/11 03:42KOCIT99Full House10,000
1021/11 03:42CLA69Full House2,000
1121/11 03:42NGOBELVITAFull House10,000
1221/11 03:42YUNA78Full House10,000
1321/11 03:42WAYAN33Four Of A Kind250,000
1421/11 03:42SUKASARUFull House20,000
1521/11 03:42KUATBAPERFull House10,000
1621/11 03:42OREX99Full House1,000
1721/11 03:42TRIENJOY45Four Of A Kind50,000
1821/11 03:42VAPEDYF6LCFull House20,000
1921/11 03:42PKCLICK062Full House20,000
2021/11 03:42MOCCAYFull House1,000
2121/11 03:42CRAYTOS90Full House1,000
2221/11 03:42DEWA6968Full House10,000
2321/11 03:42DENOV1409Full House2,000
2421/11 03:42QQASIAQQFull House500
2521/11 03:41UBUR94Full House500
2621/11 03:41JAVAPRONFull House1,000
2721/11 03:41M4ND4U_88Full House1,000
2821/11 03:41BOJEZ75Full House2,000
2921/11 03:41UPIK232Full House5,000
3021/11 03:41CERIA9999Full House5,000
3121/11 03:41MAENPOELFull House5,000
3221/11 03:41MPOATIEFull House500
3321/11 03:41ATHAMMARFull House1,000
3421/11 03:41DWEEEEEFull House1,000
3521/11 03:41YOYOY_1212Full House2,000
3621/11 03:41SUGAR04Full House1,000
3721/11 03:41ETAPISAN78Full House2,000
3821/11 03:41DODOLL2123Full House2,000
3921/11 03:41JENG29Full House20,000
4021/11 03:41TEMPOER123Full House5,000
4121/11 03:41KAKANISFull House5,000
4221/11 03:41REFANTINOFull House5,000
4321/11 03:41VICENZO85Full House1,000
4421/11 03:41HAWO_NAGO7Full House1,000
4521/11 03:41PIINFull House1,000
4621/11 03:41GIJOEEEEEStraight Flush1,200,000
4721/11 03:41QINTHUL9Full House10,000
4821/11 03:41ALIHUSINFull House5,000
4921/11 03:41OELEOPAN12Full House2,000
5021/11 03:41MUMU5000Full House10,000

Domino Multi Jackpot System

Ikutilah global jackpot yang tersedia di system kami, dengan system jackpot terbaru dan pertama di indonesia, anda dapat membeli jackpot dengan harga 100 rupiah saja dan menangkan hadiahnya hingga puluhan juta rupiah.

Jackpot bukanlah suatu keharusan untuk dibeli, namun kami memberikan suatu fitur tambahan untuk member tercinta dari www.genkpoker.net.

Terdapat tiga pilihan harga jackpot yang bisa anda beli yaitu :100,500 dan 1000 rupiah.

Hadiah dari Multi jackpot system www.genkpoker.net

  1. Murni Kecil x 50 harga jackpot yang anda beli.
      (contoh:anda membeli 1000 maka:1000 X 50 = 50.000)
  2. Murni Besar x 50 harga jackpot yang anda beli
      (contoh:anda membeli 1000 maka:1000 X 50 = 50.000)
  3. BALAK x 100 harga jackpot yang anda beli
      (contoh:anda membeli 1000 maka:1000 X 100 = 100.000)
  4. ENAM DEWA x 6666 harga jackpot yang anda beli
      (contoh:anda membeli 1000 maka:1000 X 6666 = 6.666.000)

Demikian adalah penjelasan dari Multi Jackpot www.genkpoker.net terima kasih dan selamat bermain salam hoki dari kami

Domino Jackpot Winner

TOP ENAM DEWA
No.TanggalNamaPriceWin
121/11 03:07SALWImurni enam3,333,000
220/11 23:15PWWWmurni enam3,333,000
320/11 20:32SOHIT19murni enam3,333,000
420/11 19:04TUJMEmurni enam3,333,000
520/11 19:02MAN03333murni enam3,333,000
TOP BALAK
No.TanggalNamaPriceWin
121/11 03:42LEKJATbalak10,000
221/11 03:42POEK1987balak50,000
321/11 03:40TGMJAYAOKbalak100,000
421/11 03:39QAXHBQVEKObalak100,000
521/11 03:32SEMAGAT12balak100,000
LATEST JACKPOT
No.TanggalNamaPriceWin
121/11 03:42PLGVARIO150murni kecil50,000
221/11 03:42LEKJATbalak10,000
321/11 03:42POEK1987balak50,000
421/11 03:41SNI37582murni kecil50,000
521/11 03:40KAMIL26murni besar5,000
621/11 03:40FUCKOF86murni besar5,000
721/11 03:40TGMJAYAOKbalak100,000
821/11 03:40RAJA_TAPAImurni kecil50,000
921/11 03:39HENDRA866murni besar25,000
1021/11 03:39QAXHBQVEKObalak100,000
1121/11 03:39AT86murni kecil5,000
1221/11 03:37SOPO16murni kecil50,000
1321/11 03:37TGMJAYAOKmurni kecil50,000
1421/11 03:37MANCES23murni kecil50,000
1521/11 03:36TOMPELOO1murni besar25,000
1621/11 03:36MUJIJYmurni kecil50,000
1721/11 03:34UCILCASPERmurni besar25,000
1821/11 03:33SBSENCARIQmurni kecil50,000
1921/11 03:32SEMAGAT12balak100,000
2021/11 03:32B444YUUUmurni kecil50,000
2121/11 03:32ANSARKO5murni besar50,000
2221/11 03:31MIA_10murni kecil25,000
2321/11 03:30DHER89murni besar25,000
2421/11 03:29DHER89murni besar25,000
2521/11 03:29CIMENG1620murni kecil50,000
2621/11 03:29SYT3CZN3UIlucky9910,000
2721/11 03:28NINGYOlucky9925,000
2821/11 03:28IBRAMOVIC9balak10,000
2921/11 03:27ROYALFLVSHbalak50,000
3021/11 03:27RAJALAHmurni kecil5,000
3121/11 03:27SRNSAMPERURUlucky992,500
3221/11 03:26ZA225murni besar25,000
3321/11 03:26RAJA_TAPAImurni kecil25,000
3421/11 03:24MORATImurni besar25,000
3521/11 03:24RUDIARENmurni kecil50,000
3621/11 03:22E1214A15murni kecil50,000
3721/11 03:21YANTO84murni besar50,000
3821/11 03:20RIDHOO200balak10,000
3921/11 03:20MULTI88664murni kecil5,000
4021/11 03:19PEMPEK089balak10,000
4121/11 03:19HAJIUROHbalak10,000
4221/11 03:17RISKYTERUSmurni kecil25,000
4321/11 03:16NAURA33XXXbalak10,000
4421/11 03:16BABYKUmurni kecil50,000
4521/11 03:15H4NTUHUT4Nbalak100,000
4621/11 03:15CAMPALLEmurni besar25,000
4721/11 03:13CAMPALLEmurni besar25,000
4821/11 03:13HENDRA866murni besar50,000
4921/11 03:12QAXHBQVEKOmurni kecil50,000
5021/11 03:11SINARABDbalak10,000

Ceme Multi Jackpot System

Jackpot dilihat dari gabungan kartu pemain dengan kartu bandar. Bandar harus membeli jackpot sebanyak jumlah player yang sedang duduk. Sebagai contoh bila terdapat 3 pemain duduk bermain, dan bandar memutuskan untuk membeli jackpot Rp 1.000, maka pada periode tersebut bandar akan membeli jackpot sebanyak 3xRp1.000 = Rp3.000.

Jackpot bukanlah suatu keharusan untuk dibeli, namun kami memberikan suatu fitur tambahan untuk member tercinta dari www.genkpoker.net.

Terdapat tiga pilihan harga jackpot yang bisa anda beli yaitu :100,500 dan 1000 rupiah.

Hadiah dari Multi jackpot system www.genkpoker.net

  1. Murni Kecil x 50 harga jackpot yang anda beli.
      (contoh:anda membeli 1000 maka:1000 X 50 = 50.000)
  2. Murni Besar x 50 harga jackpot yang anda beli
      (contoh:anda membeli 1000 maka:1000 X 50 = 50.000)
  3. BALAK x 200 harga jackpot yang anda beli
      (contoh:anda membeli 1000 maka:1000 X 200 = 200.000)
  4. ENAM DEWA x 6666 harga jackpot yang anda beli
      (contoh:anda membeli 1000 maka:1000 X 6666 = 6.666.000)

Demikian adalah penjelasan dari Multi Jackpot www.genkpoker.net terima kasih dan selamat bermain salam hoki dari kami

Ceme Jackpot Winner

TOP ENAM DEWA
No.TanggalNamaPriceWin
121/11 03:35BANG93murni enam6,666,000
221/11 02:30UT_88murni enam6,666,000
321/11 02:30KEKE_Ymurni enam6,666,000
421/11 02:14CHIPEKOmurni enam6,666,000
521/11 02:14AG3NJUDImurni enam666,600
TOP BALAK
No.TanggalNamaPriceWin
121/11 03:42BS3PP0CIUJbalak200,000
221/11 03:42BERE1481balak200,000
321/11 03:42LUKMAN48balak200,000
421/11 03:42XXNB51L6F0balak200,000
521/11 03:409ERN4TI4balak20,000
LATEST JACKPOT
No.TanggalNamaPriceWin
121/11 03:42BS3PP0CIUJbalak200,000
221/11 03:42MAKKARAENGmurni besar50,000
321/11 03:42RIANALmurni kecil50,000
421/11 03:42UTARAN15murni kecil50,000
521/11 03:42R21DH0murni kecil25,000
621/11 03:42ABIMANYU64murni kecil5,000
721/11 03:42F3D5C75Dmurni besar50,000
821/11 03:42BERE1481murni besar50,000
921/11 03:42BERE1481balak200,000
1021/11 03:42LUKMAN48balak200,000
1121/11 03:42XXNB51L6F0balak200,000
1221/11 03:41NIARWANZmurni besar50,000
1321/11 03:41CEKUR76murni besar50,000
1421/11 03:41ENGINGENGGmurni kecil50,000
1521/11 03:41YORKI11murni kecil5,000
1621/11 03:41EGAJAYAmurni kecil5,000
1721/11 03:41AAAABI6627murni kecil5,000
1821/11 03:41EGAJAYAmurni kecil5,000
1921/11 03:41NDOK987murni kecil5,000
2021/11 03:41CANTIK0222murni kecil5,000
2121/11 03:41ASU2ANmurni kecil50,000
2221/11 03:409ERN4TI4balak20,000
2321/11 03:40AZKB0DLOV1balak100,000
2421/11 03:40NAIN_88murni kecil50,000
2521/11 03:40PAKDHE9murni besar5,000
2621/11 03:39ASU2ANmurni kecil50,000
2721/11 03:39OSAOmurni kecil50,000
2821/11 03:39GENTA898murni kecil25,000
2921/11 03:39MJECLUBbalak200,000
3021/11 03:39OKW1THDR4Wbalak20,000
3121/11 03:39ACHMAD2688murni kecil50,000
3221/11 03:39S4WER66murni besar50,000
3321/11 03:39BUGGIS2222murni besar5,000
3421/11 03:39KORO_378murni kecil5,000
3521/11 03:39ADALAMmurni kecil50,000
3621/11 03:39INDAH1Xmurni besar5,000
3721/11 03:39RAHMAN5593murni kecil50,000
3821/11 03:38C19A2408murni besar50,000
3921/11 03:38AYLA2962murni kecil25,000
4021/11 03:38KISIMA44murni kecil50,000
4121/11 03:38BOSBRAY8balak200,000
4221/11 03:38UTARAN15murni kecil50,000
4321/11 03:37EGAJAYAmurni besar5,000
4421/11 03:37MICHImurni besar25,000
4521/11 03:37OSAOmurni besar50,000
4621/11 03:37WOENG12murni besar50,000
4721/11 03:37LUSIMARETHmurni besar5,000
4821/11 03:37HELZImurni besar25,000
4921/11 03:37WADRUN11balak20,000
5021/11 03:37AYLA2962murni kecil25,000